This demonstration page uses our WeatherBlox Daily Observations layout. Learn more.

39.92423, -83.80882

Hourly Observations for August 28, 2017

Temp ( °F °C ) Dew Point ( °F °C ) Humidity (%) Winds ( mph kmh ) Pressure ( in mb ) Visibility ( mi km ) Precip ( " mm )
12:56 am 00:56 Clear 61 16.1 55 12.8 81 81 NNE 3 6 30.06 1018 10 16.0934 0 0
1:56 am 01:56 Clear 61 16.1 55 12.8 81 81 ENE 3 6 30.05 1018 10 16.0934 0 0
2:56 am 02:56 Mostly Clear 58 14.4 55 12.8 90 90 E 5 7 30.03 1017 10 16.0934 0 0
3:56 am 03:56 Clear 60 15.6 56 13.3 86 86 E 7 11 30.01 1016 10 16.0934 0 0
4:56 am 04:56 Clear 60 15.6 57 13.9 90 90 E 7 11 30.02 1017 10 16.0934 0 0
5:56 am 05:56 Cloudy 62 16.7 59 15 90 90 NE 3 6 30.04 1017 10 16.0934 0 0
6:56 am 06:56 Mostly Clear 60 15.6 59 15 96 96 E 3 6 30.06 1018 9 14.48406 0 0.0254
8:56 am 08:56 Sunny 64 17.8 62 16.7 93 93 ESE 5 7 30.07 1018 8 12.87472 0 0
9:56 am 09:56 Sunny 66 18.9 63 17.2 90 90 SE 6 9 30.07 1018 10 16.0934 0 0
10:56 am 10:56 Partly Cloudy 68 20 64 17.8 87 87 SE 3 6 30.07 1018 10 16.0934 0 0
11:56 am 11:56 Mostly Sunny 69 20.6 64 17.8 84 84 Calm 30.07 1018 10 16.0934 0 0
12:56 pm 12:56 Cloudy with Light Rain 70 21.1 65 18.3 84 84 ESE 8 13 30.05 1018 10 16.0934 0 0.0254
1:56 pm 13:56 Cloudy with Light Rain 71 21.7 67 19.4 87 87 Calm 30.06 1018 10 16.0934 0 0.0254
2:42 pm 14:42 Cloudy 72 22 66 19 83 83 Calm 30.03 1017 10 16.0934 0 0.0254
2:56 pm 14:56 Cloudy 73 22.8 67 19.4 81 81 SSE 7 11 30.05 1018 10 16.0934 0 0.0254
3:56 pm 15:56 Cloudy 73 22.8 66 18.9 79 79 SE 8 13 30.04 1017 10 16.0934 0 0
4:45 pm 16:45 Partly Cloudy 73 23 66 19 78 78 SE 10 17 30.03 1017 10 16.0934 0 0
4:56 pm 16:56 Mostly Sunny 73 22.8 66 18.9 79 79 SE 12 19 30.04 1017 10 16.0934 0 0
5:36 pm 17:36 Mostly Cloudy 72 22 66 19 83 83 SE 9 15 30.03 1017 10 16.0934 0 0
5:56 pm 17:56 Cloudy 72 22.2 66 18.9 82 82 SE 14 22 30.04 1017 10 16.0934 0 0
6:56 pm 18:56 Cloudy 70 21.1 64 17.8 82 82 SSE 12 19 30.04 1017 10 16.0934 0 0
7:04 pm 19:04 Cloudy 70 21 64 18 83 83 SSE 10 17 30.03 1017 10 16.0934 0 0
7:12 pm 19:12 Cloudy 70 21 64 18 83 83 SSE 10 17 30.03 1017 10 16.0934 0 0
7:56 pm 19:56 Mostly Cloudy 68 20 64 17.8 87 87 SSE 10 17 30.04 1017 10 16.0934 0 0
8:09 pm 20:09 Cloudy 68 20 64 18 88 88 SE 8 13 30 1016 10 16.0934 0 0
8:56 pm 20:56 Cloudy 66 18.9 63 17.2 90 90 SE 6 9 30.05 1018 10 16.0934 0 0
9:56 pm 21:56 Cloudy 65 18.3 63 17.2 93 93 ESE 5 7 30.06 1018 7 11.26538 0 0
10:16 pm 22:16 Cloudy 64 18 64 18 100 100 SE 6 9 30.03 1017 10 16.0934 0 0
10:56 pm 22:56 Cloudy 65 18.3 63 17.2 93 93 SE 6 9 30.06 1018 9 14.48406 0 0.0254
11:56 pm 23:56 Cloudy 65 18.3 64 17.8 97 97 SE 7 11 30.06 1018 10 16.0934 0 0

Powered by AerisWeather